Moses Lake, WA

6:59 AM PST on December 05, 2016 (GMT -0800)
Grant County International

Weather History for KMWH - July, 2013

Change the Weather History Date:

Tuesday, July 30, 2013

  Actual Average Record
Temperature  
Mean Temperature 78 °F 74 °F  
Max Temperature 93 °F 91 °F 103 °F (2014)
Min Temperature 62 °F 57 °F 45 °F (1986)
Degree Days  
Heating Degree Days 0 0  
Month to date heating degree days 0 6  
Since 1 June heating degree days 49 61  
Since 1 July heating degree days 0 6  
Cooling Degree Days 13 9  
Month to date cooling degree days 363 233  
Year to date cooling degree days 521 343  
Since 1 June cooling degree days 471 318  
Growing Degree Days 27 (Base 50)    
Moisture  
Dew Point 42 °F    
Average Humidity 31    
Maximum Humidity 48    
Minimum Humidity 14    
Precipitation  
Precipitation 0.00 in 0.01 in 0.35 in (1997)
Month to date precipitation T 0.40  
Year to date precipitation 3.75 5.17  
Sea Level Pressure  
Sea Level Pressure 29.98 in    
Wind  
Wind Speed 5 mph (NNE)    
Max Wind Speed 14 mph    
Max Gust Speed 18 mph    
Visibility 10 miles    
Events      
T = Trace of Precipitation, MM = Missing Value Source: NWS Daily Summary

Daily Weather History Graph

Daily Weather History Graph

Search for Another Location

Airport or City:

Trip Planner

Search our weather history database for the weather conditions in past years. The results will help you decide how hot, cold, wet, or windy it might be!

Date:

Astronomy

Jul. 30, 2013 Rise Set
Actual Time 5:33 AM PDT 8:32 PM PDT
Civil Twilight 4:58 AM PDT 9:08 PM PDT
Nautical Twilight 4:11 AM PDT 9:54 PM PDT
Astronomical Twilight 3:15 AM PDT 10:49 PM PDT
Moon No Moon Rise 2:56 PM PDT (7/30)
Length of Visible Light 16h 10m
Length of Day
14h 58m
Last Quarter, 40% of the Moon is Illuminated
Jul 30
Last Quarter
Aug 6
New
Aug 14
First Quarter
Aug 20
Full
Aug 28
Last Quarter

Hourly Weather History & Observations

Time (PDT) Temp. Dew Point Humidity Pressure Visibility Wind Dir Wind Speed Gust Speed Precip Events Conditions
12:52 AM 70.0 °F 45.0 °F 41% 29.89 in 10.0 mi Calm Calm - N/A   Clear
1:52 AM 68.0 °F 44.1 °F 42% 29.90 in 10.0 mi Calm Calm - N/A   Clear
2:52 AM 68.0 °F 46.0 °F 45% 29.91 in 10.0 mi North 3.5 mph - N/A   Clear
3:52 AM 68.0 °F 45.0 °F 43% 29.94 in 10.0 mi Calm Calm - N/A   Clear
4:52 AM 63.0 °F 43.0 °F 48% 29.96 in 10.0 mi North 6.9 mph - N/A   Clear
5:52 AM 64.0 °F 43.0 °F 46% 29.97 in 10.0 mi North 6.9 mph - N/A   Clear
6:52 AM 69.1 °F 42.1 °F 38% 29.98 in 10.0 mi North 9.2 mph - N/A   Clear
7:52 AM 70.0 °F 43.0 °F 38% 30.00 in 10.0 mi NNE 5.8 mph - N/A   Clear
8:52 AM 78.1 °F 39.9 °F 25% 30.01 in 10.0 mi North 9.2 mph - N/A   Clear
9:52 AM 80.1 °F 39.0 °F 23% 30.01 in 10.0 mi NNE 10.4 mph - N/A   Clear
10:52 AM 82.9 °F 41.0 °F 23% 30.01 in 10.0 mi East 6.9 mph - N/A   Clear
11:52 AM 86.0 °F 42.1 °F 21% 30.01 in 10.0 mi Calm Calm - N/A   Clear
12:52 PM 88.0 °F 45.0 °F 22% 30.00 in 10.0 mi SE 5.8 mph - N/A   Clear
1:52 PM 89.1 °F 46.0 °F 22% 30.00 in 10.0 mi SW 8.1 mph - N/A   Clear
2:52 PM 90.0 °F 44.1 °F 20% 30.00 in 10.0 mi Variable 6.9 mph - N/A   Clear
3:52 PM 91.0 °F 36.0 °F 14% 29.98 in 10.0 mi South 4.6 mph - N/A   Clear
4:52 PM 91.9 °F 41.0 °F 17% 29.98 in 10.0 mi WSW 6.9 mph - N/A   Clear
5:52 PM 91.0 °F 41.0 °F 17% 29.97 in 10.0 mi SSW 11.5 mph - N/A   Clear
6:52 PM 90.0 °F 37.0 °F 15% 29.97 in 10.0 mi SSW 5.8 mph - N/A   Clear
7:52 PM 87.1 °F 35.1 °F 16% 29.97 in 10.0 mi Calm Calm - N/A   Clear
8:52 PM 84.0 °F 37.9 °F 19% 29.98 in 10.0 mi Calm Calm - N/A   Scattered Clouds
9:52 PM 79.0 °F 39.9 °F 25% 30.00 in 10.0 mi Calm Calm - N/A   Clear
10:52 PM 71.1 °F 39.0 °F 31% 30.00 in 10.0 mi North 4.6 mph - N/A   Clear